Epoch 2002 Oct. 13.0 TT = JDT 2452560.5 T 2002 Oct. 11.7641 TT MPCN q 5.184275 (2000.0) P Q z +0.000091 Peri. 47.0550 -0.1818339 +0.5655360 +/-0.000004 Node 237.4619 -0.9128647 +0.2070170 e 0.999531 Incl. 72.5935 +0.3655333 +0.7983188 From 231 observations 2001 Apr. 30-2002 Feb. 19, mean residual 0".5.
m1 = -4.1 + 5 logΔ + 21.0 log r